Location: Mount Graham
(32.7016°N, 109.8912°W)
Time: 22:06:43
(UTC-07:00)

Cosmos 1340 - Visible Passes

Search period start: 22 February 2017 00:00
Search period end: 04 March 2017 00:00
Orbit: 506 x 510 km, 81.2° (Epoch: 22 February)

Date Brightness Start Highest point End Pass type
(mag) Time Alt. Az. Time Alt. Az. Time Alt. Az.
22 Feb 2.7 19:14:35 10° N 19:18:18 53° E 19:21:59 10° SSE visible
23 Feb 3.1 18:57:22 10° N 19:00:57 39° E 19:04:30 10° SSE visible
24 Feb 3.5 18:40:13 10° NNE 18:43:35 30° ENE 18:46:56 10° SE visible
24 Feb 6.1 20:17:30 10° WNW 20:18:56 12° W 20:20:21 10° WSW visible
25 Feb 5.8 19:59:23 10° NW 20:01:39 16° W 20:03:57 10° SW visible
26 Feb 5.5 19:41:34 10° NW 19:44:23 20° W 19:47:12 10° SW visible
27 Feb 5.1 19:23:55 10° NW 19:27:06 26° W 19:30:17 10° SSW visible
28 Feb 4.6 19:06:21 10° NNW 19:09:48 34° W 19:13:15 10° SSW visible
01 Mar 3.9 18:48:52 10° NNW 18:52:30 46° W 18:56:07 10° SSW visible
